TimeCST,TemperatureF,Dew PointF,Humidity,Sea Level PressureIn,VisibilityMPH,Wind Direction,Wind SpeedMPH,Gust SpeedMPH,PrecipitationIn,Events,Conditions,WindDirDegrees,DateUTC
12:15 AM,55.4,48.2,77,29.75,10.0,South,16.1,-,N/A,,Partly Cloudy,170,2013-03-09 06:15:00
12:35 AM,55.4,50.0,82,29.74,10.0,South,17.3,-,N/A,,Clear,170,2013-03-09 06:35:00
12:55 AM,55.4,50.0,82,29.74,10.0,South,17.3,23.0,N/A,,Mostly Cloudy,180,2013-03-09 06:55:00
1:15 AM,55.4,50.0,82,29.74,10.0,South,18.4,-,N/A,,Scattered Clouds,190,2013-03-09 07:15:00
1:35 AM,55.4,48.2,77,29.74,10.0,South,17.3,-,N/A,,Mostly Cloudy,190,2013-03-09 07:35:00
1:55 AM,53.6,48.2,82,29.74,10.0,South,15.0,-,N/A,,Mostly Cloudy,190,2013-03-09 07:55:00
2:15 AM,53.6,48.2,82,29.74,10.0,South,13.8,-,N/A,,Overcast,190,2013-03-09 08:15:00
2:35 AM,53.6,48.2,82,29.73,10.0,South,16.1,-,N/A,,Overcast,180,2013-03-09 08:35:00
2:55 AM,53.6,48.2,82,29.71,10.0,South,12.7,-,N/A,,Overcast,180,2013-03-09 08:55:00
3:15 AM,53.6,48.2,82,29.70,10.0,South,10.4,-,N/A,,Overcast,190,2013-03-09 09:15:00
3:35 AM,53.6,48.2,82,29.69,10.0,South,12.7,-,N/A,,Overcast,170,2013-03-09 09:35:00
3:55 AM,53.6,48.2,82,29.68,10.0,South,13.8,-,N/A,,Overcast,180,2013-03-09 09:55:00
4:15 AM,53.6,48.2,82,29.67,10.0,South,15.0,-,N/A,,Overcast,180,2013-03-09 10:15:00
4:35 AM,53.6,48.2,82,29.67,10.0,South,15.0,-,N/A,,Mostly Cloudy,180,2013-03-09 10:35:00
4:55 AM,53.6,48.2,82,29.66,10.0,South,13.8,-,N/A,,Overcast,170,2013-03-09 10:55:00
5:15 AM,53.6,48.2,82,29.67,10.0,South,13.8,-,N/A,,Mostly Cloudy,170,2013-03-09 11:15:00
5:35 AM,51.8,46.4,82,29.66,10.0,South,13.8,-,N/A,,Mostly Cloudy,180,2013-03-09 11:35:00
5:55 AM,51.8,46.4,82,29.66,10.0,South,17.3,-,N/A,,Partly Cloudy,180,2013-03-09 11:55:00
6:15 AM,51.8,48.2,88,29.66,10.0,South,17.3,-,N/A,,Mostly Cloudy,180,2013-03-09 12:15:00
6:35 AM,51.8,46.4,82,29.66,10.0,South,16.1,-,N/A,,Mostly Cloudy,180,2013-03-09 12:35:00
6:55 AM,51.8,46.4,82,29.66,10.0,South,17.3,-,N/A,,Mostly Cloudy,180,2013-03-09 12:55:00
7:15 AM,51.8,46.4,82,29.65,10.0,South,20.7,-,N/A,,Overcast,180,2013-03-09 13:15:00
7:35 AM,51.8,46.4,82,29.65,10.0,South,19.6,-,N/A,,Mostly Cloudy,180,2013-03-09 13:35:00
7:55 AM,53.6,46.4,77,29.64,10.0,South,21.9,27.6,N/A,,Mostly Cloudy,180,2013-03-09 13:55:00
8:15 AM,53.6,48.2,82,29.65,10.0,South,18.4,26.5,N/A,,Overcast,190,2013-03-09 14:15:00
8:35 AM,53.6,46.4,77,29.65,10.0,South,18.4,-,N/A,,Mostly Cloudy,190,2013-03-09 14:35:00
8:55 AM,55.4,46.4,72,29.64,10.0,South,18.4,25.3,N/A,,Mostly Cloudy,190,2013-03-09 14:55:00
9:15 AM,55.4,46.4,72,29.63,10.0,SSW,23.0,28.8,N/A,,Partly Cloudy,200,2013-03-09 15:15:00
9:35 AM,57.2,44.6,63,29.62,10.0,SW,27.6,32.2,N/A,,Clear,220,2013-03-09 15:35:00
9:55 AM,59.0,44.6,59,29.62,10.0,SW,29.9,35.7,N/A,,Clear,220,2013-03-09 15:55:00
10:15 AM,60.8,42.8,52,29.62,10.0,SW,32.2,35.7,N/A,,Clear,220,2013-03-09 16:15:00
10:35 AM,60.8,42.8,52,29.62,10.0,SW,27.6,35.7,N/A,,Clear,220,2013-03-09 16:35:00
10:55 AM,60.8,39.2,45,29.61,10.0,SW,23.0,35.7,N/A,,Clear,220,2013-03-09 16:55:00
11:15 AM,62.6,37.4,39,29.61,10.0,SW,29.9,36.8,N/A,,Clear,230,2013-03-09 17:15:00
11:35 AM,62.6,35.6,37,29.60,10.0,SW,26.5,36.8,N/A,,Clear,230,2013-03-09 17:35:00
11:55 AM,64.4,33.8,32,29.58,10.0,SW,31.1,39.1,N/A,,Clear,220,2013-03-09 17:55:00
12:15 PM,66.2,30.2,26,29.58,10.0,SW,31.1,40.3,N/A,,Clear,230,2013-03-09 18:15:00
12:35 PM,66.2,28.4,24,29.58,10.0,WSW,29.9,35.7,N/A,,Clear,240,2013-03-09 18:35:00
12:55 PM,66.2,26.6,23,29.57,10.0,SW,27.6,35.7,N/A,,Clear,230,2013-03-09 18:55:00
1:15 PM,66.2,24.8,21,29.57,10.0,SW,26.5,39.1,N/A,,Clear,220,2013-03-09 19:15:00
1:35 PM,66.2,23.0,19,29.56,10.0,SW,24.2,35.7,N/A,,Clear,220,2013-03-09 19:35:00
1:55 PM,66.2,21.2,18,29.55,10.0,SW,28.8,38.0,N/A,,Clear,230,2013-03-09 19:55:00
2:15 PM,66.2,21.2,18,29.54,10.0,WSW,27.6,38.0,N/A,,Clear,240,2013-03-09 20:15:00
2:35 PM,66.2,19.4,17,29.53,10.0,SW,28.8,36.8,N/A,,Clear,230,2013-03-09 20:35:00
2:55 PM,66.2,19.4,17,29.52,10.0,WSW,24.2,35.7,N/A,,Clear,240,2013-03-09 20:55:00
3:15 PM,66.2,17.6,15,29.52,10.0,WSW,28.8,34.5,N/A,,Clear,240,2013-03-09 21:15:00
3:35 PM,66.2,17.6,15,29.53,10.0,WSW,29.9,36.8,N/A,,Clear,240,2013-03-09 21:35:00
3:55 PM,64.4,17.6,16,29.53,10.0,SW,26.5,44.9,N/A,,Clear,230,2013-03-09 21:55:00
4:15 PM,64.4,15.8,15,29.53,10.0,SW,29.9,36.8,N/A,,Clear,230,2013-03-09 22:15:00
4:35 PM,64.4,15.8,15,29.53,10.0,WSW,28.8,36.8,N/A,,Clear,240,2013-03-09 22:35:00
4:55 PM,64.4,15.8,15,29.53,10.0,WSW,25.3,33.4,N/A,,Clear,240,2013-03-09 22:55:00
5:15 PM,62.6,14.0,15,29.53,10.0,WSW,24.2,32.2,N/A,,Clear,240,2013-03-09 23:15:00
5:35 PM,57.2,14.0,18,29.56,10.0,NNW,31.1,54.1,N/A,,Clear,340,2013-03-09 23:35:00
5:55 PM,48.2,26.6,43,29.61,10.0,NNW,34.5,46.0,N/A,,Clear,330,2013-03-09 23:55:00
6:15 PM,44.6,26.6,49,29.63,10.0,NNW,29.9,38.0,N/A,,Clear,340,2013-03-10 00:15:00
6:35 PM,42.8,24.8,49,29.64,10.0,NNW,24.2,32.2,N/A,,Clear,340,2013-03-10 00:35:00
6:55 PM,41.0,24.8,53,29.66,10.0,NNW,25.3,32.2,N/A,,Partly Cloudy,340,2013-03-10 00:55:00
7:15 PM,39.2,24.8,56,29.69,10.0,NNW,20.7,25.3,N/A,,Partly Cloudy,340,2013-03-10 01:15:00
7:35 PM,39.2,24.8,56,29.69,10.0,North,24.2,32.2,N/A,,Mostly Cloudy,350,2013-03-10 01:35:00
7:55 PM,39.2,26.6,61,29.71,10.0,NNW,24.2,-,N/A,,Overcast,340,2013-03-10 01:55:00
8:15 PM,37.4,26.6,65,29.73,10.0,North,17.3,-,N/A,,Overcast,350,2013-03-10 02:15:00
8:35 PM,37.4,24.8,60,29.74,10.0,NNW,19.6,26.5,N/A,,Overcast,340,2013-03-10 02:35:00
8:55 PM,37.4,24.8,60,29.74,10.0,NNW,20.7,25.3,N/A,,Overcast,340,2013-03-10 02:55:00
9:15 PM,35.6,24.8,65,29.74,10.0,NNW,20.7,24.2,N/A,,Overcast,330,2013-03-10 03:15:00
9:35 PM,35.6,24.8,65,29.76,10.0,NNW,23.0,27.6,N/A,,Overcast,330,2013-03-10 03:35:00
9:55 PM,35.6,24.8,65,29.77,10.0,NNW,21.9,26.5,N/A,,Overcast,330,2013-03-10 03:55:00
10:15 PM,35.6,24.8,65,29.77,10.0,NNW,23.0,27.6,N/A,,Overcast,330,2013-03-10 04:15:00
10:35 PM,35.6,24.8,65,29.78,10.0,NNW,20.7,26.5,N/A,,Overcast,340,2013-03-10 04:35:00
10:55 PM,35.6,24.8,65,29.78,10.0,NNW,21.9,26.5,N/A,,Overcast,330,2013-03-10 04:55:00
11:15 PM,35.6,24.8,65,29.78,10.0,NNW,25.3,-,N/A,,Overcast,340,2013-03-10 05:15:00
11:35 PM,33.8,24.8,70,29.78,10.0,NNW,26.5,32.2,N/A,,Overcast,340,2013-03-10 05:35:00
11:55 PM,33.8,24.8,70,29.77,10.0,North,26.5,38.0,N/A,,Overcast,350,2013-03-10 05:55:00